Flag for Germany Past Weather in Weiden in der Oberpfalz, Bavaria, Germany — Yesterday and Last 2 Weeks

Now
61 °F

Partly sunny.


Feels Like: 61 °F
Forecast: 51 / 76 °F
Wind: 3 mph from North

Location: Grafenwoehr

Current Time: May 27, 2016 at 12:36:59 PM

Latest Report: May 27, 2016 at 11:58 AM


Visibility: N/A

Pressure: 29.98 "Hg

Humidity: 94%

Dew Point: 59 °F

Location of Weiden in der OberpfalzLocation

Past Weather in Weiden in der Oberpfalz — Graph

°F

Weiden in der Oberpfalz Temperature Yesterday

Maximum temperature yesterday: 72 °F (at 3:58 PM)
Minimum temperature yesterday: 46 °F (at 4:58 AM)
Average temperature yesterday: 58 °F

High & Low Weather Summary for the Past Weeks

 TemperatureHumidityPressure
High84 °F (May 22, 2:58 PM)100% (May 20, 3:58 AM)30.13 "Hg (May 20, 3:58 AM)
Low37 °F (May 15, 12:58 AM)22% (May 22, 3:58 PM)29.41 "Hg (May 13, 5:58 AM)
Average54 °F74%29.90 "Hg
* Reported May 12 10:58 AM — May 27 10:58 AM, Weiden in der Oberpfalz, Weather by CustomWeather, © 2016

Note: Actual official high and low records may vary slightly from our data, if they occured in-between our weather recording intervals... More about our weather records

Advertising

Weiden in der Oberpfalz Weather History for the Previous 24 Hours

Scroll right to see more
 ConditionsComfort  
Time TempWeatherWind HumidityBarometerVisibility
10:58 AM
Fri, May 27
57 °FOvercast.1 mph94%30.01 "HgN/A
9:58 AM55 °FDrizzle. Fog.No wind100%30.03 "Hg6 mi
8:58 AM55 °FRain. Fog.2 mph94%30.01 "Hg3 mi
7:58 AM54 °FPassing clouds.No wind91%29.97 "HgN/A
6:58 AM51 °FPartly sunny.No wind93%29.99 "HgN/A
5:58 AM47 °FPassing clouds.No wind95%29.97 "HgN/A
4:58 AM47 °FClear.No wind95%29.97 "HgN/A
3:58 AM48 °FPassing clouds.No wind94%29.96 "HgN/A
2:58 AM48 °FOvercast.No wind100%29.97 "HgN/A
1:58 AM49 °FClear.No wind94%29.98 "HgN/A
12:58 AM52 °FClear.No wind88%29.98 "HgN/A
11:58 PM
Thu, May 26
52 °FClear.No wind89%29.99 "HgN/A
10:58 PM55 °FClear.No wind82%29.99 "HgN/A
9:58 PM59 °FPartly sunny.No wind72%29.99 "HgN/A
8:58 PM65 °FSunny.1 mph58%29.98 "HgN/A
7:58 PM69 °FSunny.3 mph48%29.96 "HgN/A
5:58 PM72 °FSunny.5 mph41%29.97 "HgN/A
4:58 PM72 °FPassing clouds.6 mph41%29.98 "HgN/A
3:58 PM72 °FPartly sunny.5 mph41%29.98 "HgN/A
2:58 PM70 °FScattered clouds.7 mph43%29.99 "HgN/A
1:58 PM70 °FSunny.6 mph46%29.99 "HgN/A
12:58 PM68 °FScattered clouds.6 mph46%29.99 "HgN/A
Weather by CustomWeather, © 2016

See weather overviewHow to use our weather pages